FW0984 Weather Reports


Display with metric or nautical units.
time (UTC)temp
F
wind
direction
speed
MPH
gust
MPH
rain 1hr
in
rain 24hr
in
rain mn
in
humidity
%
barometer
mb
20260903020051 77 151 0.0 0.0 0.00 0.00 0.00 89 1016.4
20260903014559 77 151 0.0 0.0 0.00 0.00 0.00 88 1016.4
20260903013050 78 151 0.0 0.0 0.00 0.00 0.00 86 1016.3
20260903011605 78 189 0.0 0.0 0.00 0.00 0.00 86 1016.1
20260903004548 80 279 0.0 0.0 0.00 0.00 0.00 83 1015.8
20260903003048 81 279 0.0 0.0 0.00 0.00 0.00 79 1015.7
20260902193016 91 138 0.0 0.0 0.00 0.00 0.00 52 1016.7
20260902191504 91 264 0.0 0.0 0.00 0.00 0.00 57 1016.9
20260902190005 91 327 0.0 0.0 0.00 0.00 0.00 61 1017.0
20260902184501 91 68 0.0 0.0 0.00 0.00 0.00 59 1017.2
20260902183001 92 315 0.0 0.0 0.00 0.00 0.00 59 1017.3
20260902181612 92 297 0.0 0.0 0.00 0.00 0.00 56 1017.3
20260902180103 91 70 0.0 0.0 0.00 0.00 0.00 57 1017.5
20260902174558 92 278 0.0 0.0 0.00 0.00 0.00 57 1017.6
20260902173108 92 321 0.0 0.0 0.00 0.00 0.00 57 1017.8
20260902171556 92 294 0.0 0.0 0.00 0.00 0.00 61 1017.8
20260902170052 91 278 0.0 0.0 0.00 0.00 0.00 60 1018.0
20260902164547 91 295 0.0 0.0 0.00 0.00 0.00 58 1018.1
20260902163053 91 263 0.0 0.0 0.00 0.00 0.00 63 1018.2
20260902161541 90 289 0.0 0.0 0.00 0.00 0.00 64 1018.2
20260902160038 89 302 0.0 0.0 0.00 0.00 0.00 67 1018.4
20260902154534 89 328 0.0 0.0 0.00 0.00 0.00 68 1018.5
20260902153044 89 271 0.0 0.0 0.00 0.00 0.00 72 1018.6
20260902151528 88 197 0.0 0.0 0.00 0.00 0.00 68 1018.7
20260902150024 87 213 0.0 0.0 0.00 0.00 0.00 74 1018.8
20260902144519 86 125 0.0 0.0 0.00 0.00 0.00 78 1018.8
20260902143015 84 213 0.0 0.0 0.00 0.00 0.00 81 1018.7
20260902141511 81 187 0.0 0.0 0.00 0.00 0.00 86 1018.8
20260902140007 75 187 0.0 0.0 0.00 0.00 0.00 97 1018.7
20260902134506 74 162 0.0 0.0 0.00 0.00 0.00 97 1018.7
20260902133002 73 162 0.0 0.0 0.00 0.00 0.00 97 1018.7
20260902131559 72 162 0.0 0.0 0.00 0.00 0.00 97 1018.7
20260902130058 72 162 0.0 0.0 0.00 0.00 0.00 96 1018.8
20260902124555 71 162 0.0 0.0 0.00 0.00 0.00 96 1018.6
20260902123058 71 162 0.0 0.0 0.00 0.00 0.00 96 1018.6
20260902121552 70 162 0.0 0.0 0.00 0.00 0.00 96 1018.5
20260902120048 69 162 0.0 0.0 0.00 0.00 0.00 95 1018.4
20260902114547 69 162 0.0 0.0 0.00 0.00 0.00 95 1018.4
20260902113044 69 162 0.0 0.0 0.00 0.00 0.00 95 1018.2
20260902111541 69 162 0.0 0.0 0.00 0.00 0.00 95 1018.0
20260902110045 69 162 0.0 0.0 0.00 0.00 0.00 94 1018.1
20260902104539 69 162 0.0 0.0 0.00 0.00 0.00 94 1017.9
20260902103038 69 162 0.0 0.0 0.00 0.00 0.00 94 1017.9
20260902101537 70 162 0.0 0.0 0.00 0.00 0.00 94 1018.0
20260902100034 70 162 0.0 0.0 0.00 0.00 0.00 94 1017.9
20260902094532 70 162 0.0 0.0 0.00 0.00 0.00 94 1017.9
20260902093036 70 162 0.0 0.0 0.00 0.00 0.00 94 1017.9
20260902091528 70 162 0.0 0.0 0.00 0.00 0.00 94 1017.9
20260902090026 70 162 0.0 0.0 0.00 0.00 0.00 94 1017.7
20260902084524 70 162 0.0 0.0 0.00 0.00 0.00 94 1017.5
20260902083023 71 162 0.0 0.0 0.00 0.00 0.00 94 1017.4
20260902081523 71 162 0.0 0.0 0.00 0.00 0.00 94 1017.2
20260902080021 71 162 0.0 0.0 0.00 0.00 0.00 94 1017.2
20260902074521 71 162 0.0 0.0 0.00 0.00 0.00 93 1017.2
20260902073019 71 162 0.0 0.0 0.00 0.00 0.00 93 1017.3
20260902071517 72 162 0.0 0.0 0.00 0.00 0.00 93 1017.2
20260902070020 72 162 0.0 0.0 0.00 0.00 0.00 93 1017.2
20260902064514 72 162 0.0 0.0 0.00 0.00 0.00 93 1017.2
20260902063014 72 162 0.0 0.0 0.00 0.00 0.00 92 1017.1
20260902061531 72 162 0.0 0.0 0.00 0.00 0.00 92 1017.2
20260902060012 73 162 0.0 0.0 0.00 0.00 0.00 92 1017.1
20260902054511 73 162 0.0 0.0 0.00 0.00 0.00 91 1017.2
20260902053006 73 162 0.0 0.0 0.00 0.00 0.00 91 1017.3
20260902051504 73 162 0.0 0.0 0.00 0.00 0.00 91 1017.2
20260902050005 74 162 0.0 0.0 0.00 0.00 0.00 91 1017.2
20260902044602 74 162 0.0 0.0 0.00 0.00 0.00 90 1017.2
20260902043103 74 162 0.0 0.0 0.00 0.00 0.00 89 1017.2
20260902041557 75 162 0.0 0.0 0.00 0.00 0.00 88 1017.2
20260902040054 75 162 0.0 0.0 0.00 0.00 0.00 88 1017.3
20260902034556 75 162 0.0 0.0 0.00 0.00 0.00 87 1017.1
20260902033056 76 162 0.0 0.0 0.00 0.00 0.00 87 1017.3
20260902031552 76 162 0.0 0.0 0.00 0.00 0.00 87 1017.1
20260902030052 76 162 0.0 0.0 0.00 0.00 0.00 86 1017.2
20260902024552 77 162 0.0 0.0 0.00 0.00 0.00 85 1017.0
20260902023106 77 162 0.0 0.0 0.00 0.00 0.00 85 1017.1
20260902021551 78 162 0.0 0.0 0.00 0.00 0.00 84 1017.1